Torna al catalogo

SSTL S1-4

AttivoScienzaSSO
NORAD 43618·PAYLOAD·🇬🇧 United Kingdom

Lanciato Sep 16, 2018 da Satish Dhawan Space Centre

Loading…

Prossimi Passaggi (prossime 24 ore)

TLE

AggiornatoSource: Space-Track

Epoca: Sep 14, 2026, 15:07 UTC

1 43618U 18071A   26257.63024068  .00000370  00000-0  36911-4 0  9994
2 43618  97.4867 125.4735 0002582 230.2758 129.8238 14.97018432436315

Traccia SSTL S1-4 in tempo reale con AllMySat

Download on the App Store